[[{"header":{"parameterUnit":"m.s-1","parameterCategory":1,"la1":30.2991,"la2":30.254,"lo1":-89.0895,"lo2":-89.0444,"dy":0.0017,"dx":0.0017,"nx":28,"ny":28,"refTime":"2024-02-17T03:00:00:Z","depth":0,"parameterNumber":2,"parameterNumberName":"U-component_of_WINDS"},"data":[0,0,0,0,0,0,0,0,0,0,0,0,0,0,0,0,0,0,0,0,0,0,0,0,0,0,0,0,0,0,0,0,0,0,0,0,0,0,0,0,0,0,0,0,0,0,0,0,0,0,0,0,0,0,0,0,0,0,1.3897,1.3897,0,1.3905,1.3905,1.3905,1.3887,1.3887,1.3886,1.3886,1.3894,1.3895,1.3895,0,0,0,0,0,0,0,0,0,0,0,0,0,1.3867,1.3868,1.3897,1.3897,1.3897,1.3905,1.3905,1.3905,1.3887,1.3887,1.3886,1.3885,1.3894,1.3895,1.3896,0,0,0,0,0,0,0,0,0,0,0,0,0,1.3878,1.3868,1.3897,1.3889,1.3889,1.3905,1.3905,1.3905,1.3888,1.3887,1.3886,1.3885,1.3893,1.3895,1.3896,1.392,0,0,1.3899,1.39,0,0,0,0,0,0,0,0,1.3878,1.3879,1.389,1.389,1.3889,1.3894,1.3898,1.391,1.3888,1.3888,1.3886,1.3885,1.3895,1.3896,1.3899,1.392,1.3921,1.3899,1.39,1.39,1.3901,0,0,0,0,0,0,0,1.3877,1.3879,1.39,1.389,1.389,1.3886,1.3886,1.39,1.3896,1.3888,1.3887,1.3888,1.3894,1.3898,1.3899,1.3921,1.3899,1.39,1.3901,1.3901,1.3965,1.3966,0,0,0,0,0,0,1.3877,1.3878,1.39,1.39,1.3881,1.3887,1.3888,1.3894,1.3896,1.3895,1.3889,1.3887,1.3897,1.3898,1.3899,1.3929,1.39,1.3901,1.3902,1.3964,1.3965,1.3966,0,0,0,0,0,0,1.3876,1.3879,1.39,1.3889,1.3891,1.3888,1.3895,1.3894,1.3898,1.3896,1.3896,1.3893,1.3896,1.3898,1.3916,1.3929,1.3902,1.3903,1.3962,1.3964,1.3965,1.3989,0,0,0,0,0,0,1.3876,1.3879,1.3888,1.3889,1.3892,1.3915,1.3896,1.3895,1.39,1.3898,1.3901,1.39,1.3895,1.3914,1.3917,1.3931,1.3904,1.3961,1.3963,1.3965,1.3987,1.3991,1.3995,0,0,0,0,0,1.3875,1.3894,1.3888,1.3891,1.3903,1.3916,1.3918,1.3912,1.3901,1.391,1.391,1.39,1.3928,1.3916,1.3919,1.3933,1.396,1.3963,1.3965,1.3985,1.399,1.3995,0,0,0,0,0,0,1.3893,1.3894,1.3888,1.3908,1.3912,1.3913,1.3924,1.3917,1.3924,1.3922,1.3915,1.3915,1.3935,1.3936,1.3923,1.3958,1.3942,1.3945,1.3957,1.3961,1.3965,1.3965,1.3905,0,0,0,0,0,1.39,1.391,1.391,1.3928,1.393,1.3927,1.3932,1.3928,1.3932,1.3934,1.3934,1.3939,1.3948,1.3955,1.3964,1.3987,1.3988,1.3999,1.4002,1.4006,1.4008,1.4022,1.4027,1.3973,1.3973,1.3973,0,0,1.3913,1.3915,1.3922,1.3932,1.3934,1.3946,1.3929,1.3941,1.395,1.3935,1.3952,1.3953,1.3958,1.3979,1.3988,1.398,1.4024,1.4008,1.4011,1.4012,1.4025,1.403,1.4035,1.3975,1.3975,1.3974,0,0,1.3944,1.3946,1.3961,1.3965,1.397,1.3967,1.3971,1.3974,1.3974,1.3991,1.3981,1.3991,1.4008,1.4012,1.4016,1.4051,1.4043,1.4054,1.4074,1.4088,1.4092,1.4096,1.4109,1.4114,1.4056,1.4056,1.4056,0,1.396,1.3977,1.397,1.3984,1.3989,1.3978,1.3994,1.3998,1.4005,1.4009,1.4,1.4022,1.4024,1.4047,1.4055,1.4059,1.4064,1.4053,1.4092,1.4096,1.4099,1.4112,1.4117,1.4058,1.4058,1.4058,1.4057,0,1.3997,1.4009,1.4021,1.4029,1.4036,1.4051,1.4047,1.4055,1.405,1.4049,1.4068,1.407,1.408,1.4085,1.408,1.4108,1.4103,1.4093,1.4077,1.4106,1.4118,1.4122,1.406,1.4059,1.4059,1.4059,0,0,1.4039,1.4044,1.4049,1.4053,1.4058,1.4067,1.4083,1.4093,1.41,1.4106,1.4119,1.4134,1.4125,1.413,1.4126,1.4138,1.4167,1.4127,1.4127,1.4135,1.4199,1.4207,1.4212,1.4161,1.4162,1.4163,1.4199,0,1.407,1.4096,1.4091,1.4117,1.4129,1.4118,1.4132,1.4137,1.4137,1.4147,1.4147,1.4158,1.4146,1.4149,1.416,1.4161,1.418,1.4158,1.4174,1.4175,1.4174,1.4218,1.4226,1.426,1.4203,1.4204,1.4205,0,1.4109,1.4118,1.4144,1.4149,1.4154,1.4166,1.4176,1.4185,1.4191,1.4191,1.4197,1.4191,1.4207,1.4191,1.4214,1.4199,1.4206,1.4207,1.4208,1.421,1.4192,1.4222,1.427,1.4276,1.4212,1.4211,1.4211,0,1.4139,1.4156,1.4175,1.4179,1.4184,1.4194,1.4196,1.4201,1.4208,1.4217,1.4222,1.4232,1.4238,1.4246,1.4243,1.4231,1.4267,1.425,1.4268,1.4268,1.4276,1.4275,1.4327,1.4279,1.4279,1.4279,1.4278,0,1.4174,1.4191,1.4188,1.42,1.4219,1.4215,1.4234,1.4236,1.4241,1.4253,1.4244,1.4256,1.4252,1.4263,1.4261,1.4281,1.4284,1.4284,1.4283,1.4285,1.4285,1.429,1.4288,1.428,1.428,1.4279,1.4279,0,1.421,1.4209,1.4229,1.4233,1.4235,1.4249,1.4253,1.4264,1.4264,1.428,1.4283,1.4283,1.4297,1.4295,1.431,1.4308,1.4334,1.433,1.4332,1.4331,1.4349,1.4348,1.4406,1.4414,1.436,1.436,1.4361,0,1.4233,1.4247,1.4253,1.426,1.4264,1.4277,1.4284,1.428,1.4288,1.4297,1.4308,1.432,1.4331,1.4353,1.4355,1.4366,1.4363,1.4383,1.4365,1.4367,1.4365,1.4365,1.4367,1.4386,1.4387,1.4388,1.4388,0,1.4275,1.4274,1.4285,1.4296,1.4305,1.4314,1.4321,1.4328,1.4325,1.4335,1.4349,1.4357,1.4373,1.4387,1.4398,1.4401,1.4395,1.4394,1.4399,1.4401,1.4402,1.4403,1.4342,1.4392,1.4392,1.4392,1.4391,1.4391,1.4306,1.4318,1.4325,1.4337,1.4343,1.4351,1.4362,1.4364,1.4376,1.4388,1.4386,1.4402,1.4409,1.4424,1.4429,1.4442,1.4435,1.4441,1.4443,1.4445,1.4448,1.4399,1.4444,1.4444,1.4443,1.4443,1.4443,0,1.4349,1.4353,1.4364,1.4376,1.4386,1.4379,1.4388,1.4397,1.4412,1.4419,1.4429,1.4447,1.446,1.4463,1.4476,1.4486,1.4484,1.449,1.4489,1.4491,1.4453,1.4448,1.4492,1.4492,1.4492,1.4492,1.4492,1.4492,1.4372,1.4392,1.4392,1.4415,1.4419,1.4435,1.4441,1.4449,1.4455,1.4474,1.4485,1.4487,1.4493,1.4507,1.4519,1.452,1.4526,1.4534,1.4533,1.4498,1.4493,1.4488,1.4484,1.4535,1.4535,1.457,1.457,1.4571]},{"header":{"parameterUnit":"m.s-1","parameterCategory":1,"la1":30.2991,"la2":30.254,"lo1":-89.0895,"lo2":-89.0444,"dy":0.0017,"dx":0.0017,"nx":28,"ny":28,"refTime":"2024-02-17T03:00:00:Z","depth":0,"parameterNumber":3,"parameterNumberName":"V-component_of_WINDS"},"data":[0,0,0,0,0,0,0,0,0,0,0,0,0,0,0,0,0,0,0,0,0,0,0,0,0,0,0,0,0,0,0,0,0,0,0,0,0,0,0,0,0,0,0,0,0,0,0,0,0,0,0,0,0,0,0,0,0,0,-3.6298,-3.6299,0,-3.6353,-3.6354,-3.6355,-3.6368,-3.6368,-3.6368,-3.6367,-3.642,-3.6421,-3.6423,0,0,0,0,0,0,0,0,0,0,0,0,0,-3.6203,-3.6205,-3.6298,-3.6299,-3.63,-3.6353,-3.6354,-3.6355,-3.6368,-3.6368,-3.6368,-3.6367,-3.6419,-3.6421,-3.6423,0,0,0,0,0,0,0,0,0,0,0,0,0,-3.625,-3.6206,-3.6298,-3.6313,-3.6315,-3.6353,-3.6354,-3.6355,-3.6368,-3.6368,-3.6367,-3.6367,-3.6419,-3.6421,-3.6424,-3.645,0,0,-3.6431,-3.6433,0,0,0,0,0,0,0,0,-3.6247,-3.6253,-3.631,-3.6312,-3.6314,-3.6354,-3.634,-3.6387,-3.6369,-3.6348,-3.6367,-3.6367,-3.6398,-3.6402,-3.6413,-3.6452,-3.6454,-3.6432,-3.6433,-3.6434,-3.6435,0,0,0,0,0,0,0,-3.6244,-3.6251,-3.632,-3.6311,-3.6313,-3.6316,-3.6322,-3.6349,-3.6375,-3.635,-3.6351,-3.6357,-3.6399,-3.6411,-3.6415,-3.6455,-3.6432,-3.6434,-3.6436,-3.6437,-3.6521,-3.6521,0,0,0,0,0,0,-3.6239,-3.6248,-3.6318,-3.6322,-3.6279,-3.6319,-3.6325,-3.6341,-3.6375,-3.6379,-3.6358,-3.6358,-3.6407,-3.6412,-3.6417,-3.6451,-3.6434,-3.6437,-3.6438,-3.652,-3.6521,-3.6522,0,0,0,0,0,0,-3.6237,-3.6245,-3.6316,-3.6285,-3.6295,-3.6321,-3.6339,-3.6343,-3.6355,-3.6381,-3.6385,-3.6365,-3.6407,-3.6413,-3.6442,-3.6453,-3.6438,-3.644,-3.6519,-3.652,-3.6521,-3.6519,0,0,0,0,0,0,-3.6234,-3.6244,-3.6254,-3.6286,-3.6296,-3.6341,-3.6339,-3.6344,-3.636,-3.636,-3.6389,-3.6394,-3.6407,-3.6438,-3.6445,-3.6456,-3.6442,-3.6518,-3.652,-3.6521,-3.6518,-3.652,-3.6522,0,0,0,0,0,-3.623,-3.625,-3.6255,-3.6263,-3.631,-3.6342,-3.6348,-3.6364,-3.636,-3.6371,-3.6388,-3.6393,-3.6451,-3.6441,-3.6449,-3.6461,-3.6518,-3.6519,-3.6521,-3.6518,-3.652,-3.6521,0,0,0,0,0,0,-3.6217,-3.6254,-3.626,-3.6291,-3.6313,-3.6344,-3.6358,-3.6365,-3.6387,-3.6387,-3.6405,-3.6411,-3.6439,-3.6453,-3.6442,-3.6489,-3.6484,-3.6487,-3.6479,-3.6482,-3.6483,-3.6479,-3.6444,0,0,0,0,0,-3.6219,-3.6242,-3.6273,-3.6297,-3.6308,-3.6331,-3.6345,-3.6356,-3.6379,-3.6389,-3.6408,-3.643,-3.6453,-3.6468,-3.6491,-3.6521,-3.6528,-3.6533,-3.6535,-3.6536,-3.6538,-3.6557,-3.656,-3.6527,-3.6527,-3.6527,0,0,-3.622,-3.6243,-3.6257,-3.6295,-3.6314,-3.6337,-3.6339,-3.6363,-3.6381,-3.6392,-3.6421,-3.6436,-3.6462,-3.6492,-3.6506,-3.6504,-3.6549,-3.6538,-3.6538,-3.654,-3.6559,-3.6562,-3.6565,-3.6528,-3.6527,-3.6527,0,0,-3.6236,-3.6255,-3.6279,-3.6298,-3.6327,-3.6343,-3.6349,-3.6379,-3.639,-3.6421,-3.643,-3.6451,-3.6491,-3.6509,-3.6524,-3.655,-3.6555,-3.6557,-3.6565,-3.6583,-3.6585,-3.6588,-3.6598,-3.6602,-3.6559,-3.6559,-3.6559,0,-3.6234,-3.6271,-3.6289,-3.6315,-3.6332,-3.6345,-3.6369,-3.6386,-3.6421,-3.6432,-3.643,-3.6482,-3.65,-3.6536,-3.6542,-3.6553,-3.6561,-3.6553,-3.6584,-3.6586,-3.6589,-3.6599,-3.6603,-3.6559,-3.6559,-3.6559,-3.6559,0,-3.6268,-3.6293,-3.6309,-3.6344,-3.6363,-3.6387,-3.6409,-3.6426,-3.6436,-3.6452,-3.6483,-3.6506,-3.6535,-3.6544,-3.6552,-3.6582,-3.658,-3.658,-3.6575,-3.6592,-3.6602,-3.6606,-3.6559,-3.6559,-3.6559,-3.6559,0,0,-3.6275,-3.6323,-3.6328,-3.6346,-3.638,-3.64,-3.6425,-3.6456,-3.647,-3.6494,-3.6516,-3.6551,-3.6553,-3.6569,-3.658,-3.6596,-3.6617,-3.6595,-3.6596,-3.6599,-3.6653,-3.6653,-3.6657,-3.6621,-3.6622,-3.6623,-3.6651,0,-3.6295,-3.6343,-3.6362,-3.64,-3.6425,-3.6439,-3.6461,-3.6485,-3.6501,-3.6524,-3.6541,-3.6566,-3.6566,-3.6576,-3.6593,-3.6611,-3.6628,-3.6609,-3.6642,-3.6643,-3.6636,-3.6662,-3.6661,-3.6687,-3.6655,-3.6656,-3.6656,0,-3.6325,-3.6352,-3.6394,-3.6428,-3.6439,-3.6459,-3.6489,-3.6511,-3.6539,-3.6549,-3.657,-3.658,-3.6608,-3.6602,-3.664,-3.6627,-3.6642,-3.6653,-3.6654,-3.6658,-3.6651,-3.6667,-3.6695,-3.6699,-3.6662,-3.6662,-3.6661,0,-3.6328,-3.6374,-3.6406,-3.642,-3.646,-3.6474,-3.6492,-3.6519,-3.6537,-3.6563,-3.6575,-3.6603,-3.6618,-3.664,-3.6659,-3.6652,-3.6696,-3.6691,-3.6706,-3.6705,-3.6714,-3.6713,-3.6746,-3.6722,-3.6722,-3.6722,-3.6722,0,-3.6349,-3.6374,-3.6408,-3.6427,-3.6456,-3.6478,-3.6506,-3.6524,-3.6548,-3.6572,-3.6585,-3.6606,-3.6629,-3.6653,-3.6667,-3.6698,-3.6705,-3.6714,-3.6718,-3.6713,-3.6712,-3.6723,-3.6722,-3.6723,-3.6723,-3.6723,-3.6723,0,-3.6356,-3.638,-3.6416,-3.6452,-3.6462,-3.6482,-3.6513,-3.6532,-3.655,-3.6579,-3.6587,-3.6615,-3.6645,-3.6665,-3.6702,-3.6712,-3.6746,-3.6748,-3.6737,-3.6739,-3.6753,-3.6752,-3.6794,-3.6802,-3.6772,-3.6773,-3.6773,0,-3.6368,-3.6389,-3.6428,-3.6446,-3.6464,-3.6491,-3.651,-3.6533,-3.6552,-3.6587,-3.6602,-3.6633,-3.6659,-3.6706,-3.6729,-3.6758,-3.6762,-3.6775,-3.6766,-3.6762,-3.6764,-3.6763,-3.6765,-3.6776,-3.6776,-3.6776,-3.6777,0,-3.6388,-3.64,-3.6427,-3.646,-3.6483,-3.651,-3.6536,-3.6549,-3.6576,-3.6597,-3.6629,-3.665,-3.6689,-3.672,-3.6752,-3.6769,-3.6778,-3.6779,-3.6785,-3.6781,-3.6774,-3.6779,-3.6741,-3.6778,-3.6778,-3.6778,-3.6778,-3.6778,-3.6399,-3.6418,-3.645,-3.6482,-3.6505,-3.653,-3.6551,-3.6573,-3.66,-3.6635,-3.6647,-3.668,-3.6709,-3.6753,-3.6771,-3.6797,-3.6796,-3.6803,-3.6805,-3.6807,-3.6808,-3.6769,-3.6803,-3.6803,-3.6803,-3.6803,-3.6803,0,-3.642,-3.6442,-3.6471,-3.6509,-3.6534,-3.6542,-3.6572,-3.6592,-3.6622,-3.6649,-3.6676,-3.6713,-3.6744,-3.677,-3.6802,-3.6818,-3.6823,-3.6826,-3.6825,-3.6829,-3.6806,-3.6799,-3.6822,-3.6822,-3.6822,-3.6822,-3.6822,-3.6822,-3.6434,-3.6468,-3.6484,-3.6531,-3.6552,-3.6587,-3.6604,-3.6627,-3.6649,-3.6691,-3.6718,-3.6736,-3.6763,-3.6798,-3.6826,-3.6833,-3.6845,-3.6847,-3.6855,-3.6833,-3.683,-3.6828,-3.6822,-3.6849,-3.6849,-3.6876,-3.6877,-3.6877]}]]